Flag for Germany Weather past 2 weeks in Regensburg, Bavaria, Germany

Now
58 °F

Fog.


Feels Like: 58 °F
Forecast: 51 / 67 °F
Wind: 1 mph from North

Location: Regensburg

Current Time: Oct 1, 2014 at 9:06:19 AM

Latest Report: Oct 1, 2014 at 8:00 AM


Visibility: 1 mi

Pressure: 30.28 "Hg

Humidity: 99%

Dew point: 58 °F

Location of RegensburgLocation

Historic Weather in Regensburg — Graph

°F

Regensburg temperature yesterday

Maximum temperature yesterday: 63 °F (at 5:00 PM)
Minimum temperature yesterday: 50 °F (at 2:00 AM)
Average temperature yesterday: 57 °F

Past Weeks' High & Low Weather Summary

 TemperatureHumidityPressure
High76 °F (Sep 19, 4:00 PM)100% (Sep 21, 5:00 AM)30.41 "Hg (Sep 21, 5:00 AM)
Low36 °F (Sep 24, 7:00 AM)45% (Sep 17, 6:00 PM)29.87 "Hg (Sep 17, 6:00 PM)
Average57 °F85%30.11 "Hg
* Reported Sep 16 8:00 AM — Oct 1 8:00 AM, Regensburg, Weather by CustomWeather, © 2014

Note: Actual official high and low records may vary slightly from our data, if they occured in-between our weather recording intervals... More about our weather records

Advertising

Regensburg weather history for previous 24 hours

 ConditionsComfort  
Time TempWeatherWind HumidityBarometerVisibility
8:00 AM
Oct 1
58 °FFog.1 mph99%30.28 "Hg1 mi
7:00 AM58 °FOvercast.1 mph99%30.28 "Hg1 mi
6:00 AM58 °FLow clouds.No wind99%30.27 "Hg0 mi
5:00 AM58 °FLow clouds.No wind99%30.28 "Hg0 mi
4:00 AM59 °FLow clouds.No wind99%30.28 "Hg0 mi
3:00 AM59 °FLow clouds.1 mph99%30.29 "Hg1 mi
2:00 AM59 °FLow clouds.No wind99%30.29 "Hg0 mi
1:00 AM59 °FOvercast.No wind98%30.29 "Hg0 mi
12:00 AM60 °FOvercast.1 mph98%30.29 "Hg1 mi
11:00 PM
Sep 30
60 °FPassing clouds.1 mph97%30.29 "Hg1 mi
10:00 PM60 °FRain. Overcast.1 mph96%30.29 "Hg1 mi
9:00 PM61 °FLight rain. Overcast.1 mph94%30.29 "Hg2 mi
8:00 PM61 °FOvercast.2 mph93%30.28 "Hg2 mi
7:00 PM62 °FLight rain. Overcast.1 mph90%30.28 "Hg2 mi
6:00 PM63 °FFog.1 mph85%30.27 "Hg3 mi
5:00 PM63 °FFog.1 mph83%30.27 "Hg3 mi
4:00 PM63 °FFog.2 mph82%30.28 "Hg3 mi
3:00 PM62 °FFog.2 mph83%30.29 "Hg3 mi
2:00 PM61 °FFog.2 mph85%30.30 "Hg2 mi
1:00 PM60 °FFog.1 mph86%30.31 "Hg2 mi
12:00 PM58 °FFog.2 mph90%30.31 "Hg2 mi
11:00 AM57 °FFog.2 mph91%30.31 "Hg2 mi
10:00 AM55 °FFog.2 mph97%30.31 "Hg2 mi
9:00 AM54 °FLow clouds.2 mph99%30.30 "Hg2 mi
Weather by CustomWeather, © 2014

See weather overviewHow to use our weather pages